TimeMDT,TemperatureF,Dew PointF,Humidity,Sea Level PressureIn,VisibilityMPH,Wind Direction,Wind SpeedMPH,Gust SpeedMPH,PrecipitationIn,Events,Conditions,WindDirDegrees,DateUTC
12:53 AM,57.0,37.0,47,30.01,10.0,SSE,9.2,-,N/A,,Clear,160,2013-05-10 06:53:00
2:53 AM,53.1,39.0,59,30.04,10.0,WSW,5.8,-,N/A,,Partly Cloudy,240,2013-05-10 08:53:00
3:53 AM,48.9,39.9,71,30.07,10.0,South,3.5,-,N/A,,Scattered Clouds,170,2013-05-10 09:53:00
4:53 AM,50.0,37.9,63,30.07,10.0,South,9.2,-,N/A,,Clear,180,2013-05-10 10:53:00
6:53 AM,50.0,36.0,59,30.10,10.0,South,9.2,-,N/A,,Clear,180,2013-05-10 12:53:00
7:53 AM,57.0,39.0,51,30.12,10.0,South,8.1,-,N/A,,Clear,190,2013-05-10 13:53:00
8:53 AM,64.0,39.9,41,30.12,10.0,South,5.8,-,N/A,,Clear,180,2013-05-10 14:53:00
9:53 AM,68.0,39.9,36,30.12,10.0,Calm,Calm,-,N/A,,Clear,0,2013-05-10 15:53:00
11:53 AM,73.0,39.0,29,30.13,10.0,NNE,3.5,-,N/A,,Clear,30,2013-05-10 17:53:00
12:53 PM,73.9,37.9,27,30.13,10.0,Variable,3.5,-,N/A,,Clear,0,2013-05-10 18:53:00
1:53 PM,77.0,36.0,23,30.11,10.0,ENE,5.8,-,N/A,,Clear,70,2013-05-10 19:53:00
2:53 PM,77.0,34.0,21,30.11,10.0,Variable,3.5,-,N/A,,Clear,0,2013-05-10 20:53:00
3:53 PM,79.0,33.1,19,30.10,10.0,Variable,5.8,-,N/A,,Clear,0,2013-05-10 21:53:00
4:53 PM,80.1,30.9,17,30.09,10.0,Variable,3.5,-,N/A,,Clear,0,2013-05-10 22:53:00
5:53 PM,79.0,32.0,18,30.08,10.0,Calm,Calm,-,N/A,,Clear,0,2013-05-10 23:53:00
6:53 PM,79.0,34.0,20,30.06,10.0,Variable,6.9,-,N/A,,Clear,0,2013-05-11 00:53:00
7:53 PM,72.0,37.0,28,30.08,10.0,West,4.6,-,N/A,,Clear,270,2013-05-11 01:53:00
8:53 PM,60.1,39.9,47,30.10,10.0,WSW,3.5,-,N/A,,Clear,240,2013-05-11 02:53:00
9:53 PM,60.1,36.0,41,30.12,10.0,SSW,4.6,-,N/A,,Clear,210,2013-05-11 03:53:00
10:53 PM,57.0,37.9,49,30.12,10.0,South,8.1,-,N/A,,Clear,170,2013-05-11 04:53:00
11:53 PM,57.9,37.0,46,30.12,10.0,South,11.5,-,N/A,,Clear,170,2013-05-11 05:53:00